Time,TemperatureF,DewpointF,PressureIn,WindDirection,WindDirectionDegrees,WindSpeedMPH,WindSpeedGustMPH,Humidity,HourlyPrecipIn,Conditions,Clouds,dailyrainin,SolarRadiationWatts/m^2,SoftwareType,DateUTC
2013-01-24 00:22:00,28.0,-2.0,-100.00,ENE,57,2.0,3.0,27,0.00,,,0.00,1.000000,,2013-01-24 07:22:00,
2013-01-24 00:33:00,28.0,-2.0,-100.00,ENE,57,2.0,3.0,27,0.00,,,0.00,1.000000,,2013-01-24 07:33:00,
2013-01-24 00:42:00,28.0,-2.0,-100.00,ENE,57,2.0,3.0,27,0.00,,,0.00,1.000000,,2013-01-24 07:42:00,
2013-01-24 00:52:00,28.0,-2.0,-100.00,ENE,57,2.0,3.0,27,0.00,,,0.00,1.000000,,2013-01-24 07:52:00,
2013-01-24 01:22:00,29.0,-2.0,-100.00,ESE,102,2.0,5.0,25,0.00,,,0.00,1.000000,,2013-01-24 08:22:00,
2013-01-24 02:22:00,30.0,-3.0,-100.00,NNE,25,0.0,4.0,23,0.00,,,0.00,1.000000,,2013-01-24 09:22:00,
2013-01-24 03:22:00,30.0,-2.0,-100.00,NNE,22,1.0,4.0,24,0.00,,,0.00,1.000000,,2013-01-24 10:22:00,
2013-01-24 04:22:00,27.0,-5.0,-100.00,SE,130,1.0,3.0,24,0.00,,,0.00,1.000000,,2013-01-24 11:22:00,
2013-01-24 05:22:00,28.0,-1.0,-100.00,ESE,103,1.0,5.0,28,0.00,,,0.00,1.000000,,2013-01-24 12:22:00,
2013-01-24 05:33:00,28.0,-1.0,-100.00,ESE,103,1.0,5.0,28,0.00,,,0.00,1.000000,,2013-01-24 12:33:00,
2013-01-24 06:22:00,29.0,-2.0,-100.00,ENE,58,1.0,3.0,26,0.00,,,0.00,1.000000,,2013-01-24 13:22:00,
2013-01-24 07:22:00,30.0,4.0,-100.00,NE,56,2.0,3.0,32,0.00,,,0.00,1.000000,,2013-01-24 14:22:00,
2013-01-24 07:33:00,30.0,4.0,-100.00,NE,56,2.0,3.0,32,0.00,,,0.00,1.000000,,2013-01-24 14:33:00,
2013-01-24 07:43:00,30.0,4.0,-100.00,NE,56,2.0,3.0,32,0.00,,,0.00,1.000000,,2013-01-24 14:43:00,
2013-01-24 07:53:00,30.0,4.0,-100.00,NE,56,2.0,3.0,32,0.00,,,0.00,1.000000,,2013-01-24 14:53:00,
2013-01-24 08:22:00,32.0,5.0,-100.00,NE,51,1.0,3.0,31,0.00,,,0.00,2.000000,,2013-01-24 15:22:00,
2013-01-24 08:33:00,32.0,5.0,-100.00,NE,51,1.0,3.0,31,0.00,,,0.00,2.000000,,2013-01-24 15:33:00,
2013-01-24 08:42:00,32.0,5.0,-100.00,NE,51,1.0,3.0,31,0.00,,,0.00,2.000000,,2013-01-24 15:42:00,
2013-01-24 08:52:00,32.0,5.0,-100.00,NE,51,1.0,3.0,31,0.00,,,0.00,2.000000,,2013-01-24 15:52:00,
2013-01-24 09:22:00,38.0,8.0,-100.00,NNE,29,0.0,4.0,28,0.00,,,0.00,60.000000,,2013-01-24 16:22:00,
2013-01-24 09:33:00,38.0,8.0,-100.00,NNE,29,0.0,4.0,28,0.00,,,0.00,60.000000,,2013-01-24 16:33:00,
2013-01-24 09:42:00,38.0,8.0,-100.00,NNE,29,0.0,4.0,28,0.00,,,0.00,60.000000,,2013-01-24 16:42:00,
2013-01-24 10:32:00,44.0,10.0,-100.00,East,90,2.0,3.0,24,0.00,,,0.00,151.000000,,2013-01-24 17:32:00,
2013-01-24 10:42:00,44.0,10.0,-100.00,East,90,2.0,3.0,24,0.00,,,0.00,151.000000,,2013-01-24 17:42:00,
2013-01-24 10:52:00,44.0,10.0,-100.00,East,90,2.0,3.0,24,0.00,,,0.00,151.000000,,2013-01-24 17:52:00,
2013-01-24 11:22:00,47.0,17.0,-100.00,WNW,295,3.0,6.0,30,0.00,,,0.00,267.000000,,2013-01-24 18:22:00,
2013-01-24 11:32:00,47.0,17.0,-100.00,WNW,295,3.0,6.0,30,0.00,,,0.00,267.000000,,2013-01-24 18:32:00,
2013-01-24 11:42:00,47.0,17.0,-100.00,WNW,295,3.0,6.0,30,0.00,,,0.00,267.000000,,2013-01-24 18:42:00,
2013-01-24 11:52:00,47.0,17.0,-100.00,WNW,295,3.0,6.0,30,0.00,,,0.00,267.000000,,2013-01-24 18:52:00,
2013-01-24 12:22:00,48.0,16.0,-100.00,West,275,5.0,8.0,27,0.00,,,0.00,344.000000,,2013-01-24 19:22:00,
2013-01-24 12:32:00,48.0,16.0,-100.00,West,275,5.0,8.0,27,0.00,,,0.00,344.000000,,2013-01-24 19:32:00,
2013-01-24 12:42:00,48.0,16.0,-100.00,West,275,5.0,8.0,27,0.00,,,0.00,344.000000,,2013-01-24 19:42:00,
2013-01-24 12:51:00,48.0,16.0,-100.00,West,275,5.0,8.0,27,0.00,,,0.00,344.000000,,2013-01-24 19:51:00,
2013-01-24 13:22:00,43.0,15.0,-100.00,WNW,293,3.0,9.0,32,0.00,,,0.00,191.000000,,2013-01-24 20:22:00,
2013-01-24 13:32:00,43.0,15.0,-100.00,WNW,293,3.0,9.0,32,0.00,,,0.00,191.000000,,2013-01-24 20:32:00,
2013-01-24 13:42:00,43.0,15.0,-100.00,WNW,293,3.0,9.0,32,0.00,,,0.00,191.000000,,2013-01-24 20:42:00,
2013-01-24 13:52:00,43.0,15.0,-100.00,WNW,293,3.0,9.0,32,0.00,,,0.00,191.000000,,2013-01-24 20:52:00,
2013-01-24 14:22:00,42.0,14.0,-100.00,West,269,5.0,8.0,31,0.00,,,0.00,183.000000,,2013-01-24 21:22:00,
2013-01-24 14:32:00,42.0,14.0,-100.00,West,269,5.0,8.0,31,0.00,,,0.00,183.000000,,2013-01-24 21:32:00,
2013-01-24 14:42:00,42.0,14.0,-100.00,West,269,5.0,8.0,31,0.00,,,0.00,183.000000,,2013-01-24 21:42:00,
2013-01-24 14:52:00,42.0,14.0,-100.00,West,269,5.0,8.0,31,0.00,,,0.00,183.000000,,2013-01-24 21:52:00,
2013-01-24 15:22:00,39.0,22.0,-100.00,WNW,289,4.0,8.0,51,0.00,,,0.00,158.000000,,2013-01-24 22:22:00,
2013-01-24 15:32:00,39.0,22.0,-100.00,WNW,289,4.0,8.0,51,0.00,,,0.00,158.000000,,2013-01-24 22:32:00,
2013-01-24 15:42:00,39.0,22.0,-100.00,WNW,289,4.0,8.0,51,0.00,,,0.00,158.000000,,2013-01-24 22:42:00,
2013-01-24 15:52:00,39.0,22.0,-100.00,WNW,289,4.0,8.0,51,0.00,,,0.00,158.000000,,2013-01-24 22:52:00,
2013-01-24 16:22:00,33.0,28.0,-100.00,NNE,25,3.0,8.0,81,0.00,,,0.00,84.000000,,2013-01-24 23:22:00,
2013-01-24 16:32:00,33.0,28.0,-100.00,NNE,25,3.0,8.0,81,0.00,,,0.00,84.000000,,2013-01-24 23:32:00,
2013-01-24 17:22:00,32.0,29.0,-100.00,ENE,59,2.0,5.0,90,0.00,,,0.00,33.000000,,2013-01-25 00:22:00,
2013-01-24 17:32:00,32.0,29.0,-100.00,ENE,59,2.0,5.0,90,0.00,,,0.00,33.000000,,2013-01-25 00:32:00,
2013-01-24 17:41:00,32.0,29.0,-100.00,ENE,59,2.0,5.0,90,0.00,,,0.00,33.000000,,2013-01-25 00:41:00,
2013-01-24 17:51:00,32.0,29.0,-100.00,ENE,59,2.0,5.0,90,0.00,,,0.00,33.000000,,2013-01-25 00:51:00,
2013-01-24 18:21:00,32.0,30.0,-100.00,NE,49,2.0,5.0,92,0.00,,,0.00,6.000000,,2013-01-25 01:21:00,
2013-01-24 18:32:00,32.0,30.0,-100.00,NE,49,2.0,5.0,92,0.00,,,0.00,6.000000,,2013-01-25 01:32:00,
2013-01-24 18:42:00,32.0,30.0,-100.00,NE,49,2.0,5.0,92,0.00,,,0.00,6.000000,,2013-01-25 01:42:00,
2013-01-24 18:51:00,32.0,30.0,-100.00,NE,49,2.0,5.0,92,0.00,,,0.00,6.000000,,2013-01-25 01:51:00,
2013-01-24 19:22:00,31.0,29.0,-100.00,East,79,2.0,4.0,91,0.00,,,0.00,1.000000,,2013-01-25 02:22:00,
2013-01-24 19:32:00,31.0,29.0,-100.00,East,79,2.0,4.0,91,0.00,,,0.00,1.000000,,2013-01-25 02:32:00,
2013-01-24 19:42:00,31.0,29.0,-100.00,East,79,2.0,4.0,91,0.00,,,0.00,1.000000,,2013-01-25 02:42:00,
2013-01-24 19:52:00,31.0,29.0,-100.00,East,79,2.0,4.0,91,0.00,,,0.00,1.000000,,2013-01-25 02:52:00,
2013-01-24 20:22:00,32.0,30.0,-100.00,ENE,65,2.0,4.0,91,0.00,,,0.00,1.000000,,2013-01-25 03:22:00,
2013-01-24 20:32:00,32.0,30.0,-100.00,ENE,65,2.0,4.0,91,0.00,,,0.00,1.000000,,2013-01-25 03:32:00,
2013-01-24 20:41:00,32.0,30.0,-100.00,ENE,65,2.0,4.0,91,0.00,,,0.00,1.000000,,2013-01-25 03:41:00,
2013-01-24 20:52:00,32.0,30.0,-100.00,ENE,65,2.0,4.0,91,0.00,,,0.00,1.000000,,2013-01-25 03:52:00,
2013-01-24 21:22:00,33.0,30.0,-100.00,NE,50,0.0,2.0,89,0.00,,,0.00,1.000000,,2013-01-25 04:22:00,
2013-01-24 21:32:00,33.0,30.0,-100.00,NE,50,0.0,2.0,89,0.00,,,0.00,1.000000,,2013-01-25 04:32:00,
2013-01-24 21:41:00,33.0,30.0,-100.00,NE,50,0.0,2.0,89,0.00,,,0.00,1.000000,,2013-01-25 04:41:00,
2013-01-24 21:51:00,33.0,30.0,-100.00,NE,50,0.0,2.0,89,0.00,,,0.00,1.000000,,2013-01-25 04:51:00,
2013-01-24 22:22:00,32.0,29.0,-100.00,East,92,2.0,4.0,89,0.00,,,0.00,1.000000,,2013-01-25 05:22:00,
2013-01-24 22:32:00,32.0,29.0,-100.00,East,92,2.0,4.0,89,0.00,,,0.00,1.000000,,2013-01-25 05:32:00,
2013-01-24 22:43:00,32.0,29.0,-100.00,East,92,2.0,4.0,89,0.00,,,0.00,1.000000,,2013-01-25 05:43:00,
2013-01-24 22:52:00,32.0,29.0,-100.00,East,92,2.0,4.0,89,0.00,,,0.00,1.000000,,2013-01-25 05:52:00,
2013-01-24 23:21:00,32.0,29.0,-100.00,NNW,337,0.0,4.0,88,0.00,,,0.00,1.000000,,2013-01-25 06:21:00,
2013-01-24 23:32:00,32.0,29.0,-100.00,NNW,337,0.0,4.0,88,0.00,,,0.00,1.000000,,2013-01-25 06:32:00,
2013-01-24 23:41:00,32.0,29.0,-100.00,NNW,337,0.0,4.0,88,0.00,,,0.00,1.000000,,2013-01-25 06:41:00,
2013-01-24 23:51:00,32.0,29.0,-100.00,NNW,337,0.0,4.0,88,0.00,,,0.00,1.000000,,2013-01-25 06:51:00,